Weather History for Pamplona, Spain

Change the Weather History Date:

Sunday, December 1, 2013

  Actual Average Record
Temperature  
Mean Temperature 40 °F -  
Max Temperature 44 °F 46 °F 55 °F (1996)
Min Temperature 37 °F 35 °F 32 °F (2004)
Degree Days  
Heating Degree Days 24    
Moisture  
Dew Point 32 °F    
Average Humidity 72    
Maximum Humidity 81    
Minimum Humidity 65    
Precipitation  
Precipitation 0.00 in - - ()
Sea Level Pressure  
Sea Level Pressure 30.21 in    
Wind  
Wind Speed 14 mph ()    
Max Wind Speed 22 mph    
Max Gust Speed 37 mph    
Visibility 6.2 miles    
Events      
Averages and records for this station are not official NWS values.
T = Trace of Precipitation, MM = Missing Value Source: Averaged Metar Reports

Daily Weather History Graph

Daily Weather History Graph

Search for Another Location

Airport:

Trip Planner

Search our weather history database for the weather conditions in past years. The results will help you decide how hot, cold, wet, or windy it might be!

Date:

Astronomy

Dec. 01, 2013 Rise Set
Actual Time 8:17 AM CET 5:33 PM CET
Civil Twilight 7:45 AM CET 6:05 PM CET
Nautical Twilight 7:10 AM CET 6:40 PM CET
Astronomical Twilight 6:36 AM CET 7:14 PM CET
Moon 6:16 AM CET (12/1) 4:33 PM CET (12/1)
Length of Visible Light 10h 19m
Length of Day
9h 16m
Waning Crescent, 3% of the Moon is Illuminated
Dec 1
Waning Crescent
Dec 3
New
Dec 9
First Quarter
Dec 17
Full
Dec 25
Last Quarter

Hourly Weather History & Observations

Time (CET) Temp. Windchill Dew Point Humidity Pressure Visibility Wind Dir Wind Speed Gust Speed Precip Events Conditions
12:00 AM 41.0 °F 31.4 °F 30.2 °F 65% 30.15 in 6.2 mi North 21.9 mph 36.8 mph N/A   Scattered Clouds
5:30 AM 39.2 °F 31.2 °F 32.0 °F 75% 30.18 in 6.2 mi NNW 13.8 mph - N/A   Mostly Cloudy
6:00 AM 39.2 °F 32.5 °F 30.2 °F 70% 30.18 in 6.2 mi NNW 10.4 mph - N/A   Mostly Cloudy
6:30 AM 37.4 °F 29.8 °F 32.0 °F 81% 30.18 in 6.2 mi NW 11.5 mph - N/A   Mostly Cloudy
7:00 AM 39.2 °F 32.0 °F 32.0 °F 75% 30.21 in 6.2 mi NW 11.5 mph - N/A   Mostly Cloudy
7:30 AM 37.4 °F 30.3 °F 32.0 °F 81% 30.21 in 6.2 mi NW 10.4 mph - N/A   Mostly Cloudy
8:00 AM 37.4 °F 32.1 °F 32.0 °F 81% 30.21 in 6.2 mi NW 6.9 mph - N/A   Scattered Clouds
8:30 AM 37.4 °F 29.8 °F 30.2 °F 75% 30.21 in 6.2 mi NNW 11.5 mph - N/A   Partly Cloudy
9:00 AM 37.4 °F 28.9 °F 32.0 °F 81% 30.21 in - NNW 13.8 mph - N/A   Clear
9:30 AM 39.2 °F 31.6 °F 30.2 °F 70% 30.21 in - NNW 12.7 mph - N/A   Clear
10:00 AM 39.2 °F 31.2 °F 32.0 °F 75% 30.21 in - NW 13.8 mph - N/A   Clear
10:30 AM 41.0 °F 33.9 °F 32.0 °F 70% 30.24 in - NW 12.7 mph - N/A   Clear
11:00 AM 42.8 °F 35.4 °F 32.0 °F 66% 30.24 in - NW 15.0 mph - N/A   Clear
11:30 AM 42.8 °F 34.8 °F 32.0 °F 66% 30.24 in 6.2 mi NW 17.3 mph - N/A   Partly Cloudy
12:00 PM 42.8 °F 34.5 °F 32.0 °F 66% 30.24 in 6.2 mi NNW 18.4 mph - N/A   Partly Cloudy
12:30 PM 42.8 °F 34.0 °F 32.0 °F 66% 30.21 in 6.2 mi NNW 20.7 mph - N/A   Partly Cloudy
1:00 PM 42.8 °F 34.5 °F 32.0 °F 66% 30.21 in 6.2 mi NNW 18.4 mph - N/A   Partly Cloudy
1:30 PM 42.8 °F 34.3 °F 32.0 °F 66% 30.21 in 6.2 mi NNW 19.6 mph - N/A   Partly Cloudy
2:00 PM 42.8 °F 34.0 °F 32.0 °F 66% 30.21 in 6.2 mi NNW 20.7 mph - N/A   Partly Cloudy
2:30 PM 44.6 °F 36.9 °F 33.8 °F 66% 30.21 in 6.2 mi NNW 18.4 mph - N/A   Scattered Clouds
3:00 PM 42.8 °F 34.5 °F 33.8 °F 70% 30.21 in 6.2 mi NNW 18.4 mph - N/A   Scattered Clouds
3:30 PM 42.8 °F 34.3 °F 32.0 °F 66% 30.18 in 6.2 mi NNW 19.6 mph - N/A   Scattered Clouds
4:00 PM 42.8 °F 34.5 °F 32.0 °F 66% 30.18 in 6.2 mi NNW 18.4 mph - N/A   Scattered Clouds
4:30 PM 41.0 °F 31.4 °F 32.0 °F 70% 30.18 in 6.2 mi NNW 21.9 mph 33.4 mph N/A   Scattered Clouds
5:00 PM 41.0 °F 31.6 °F 32.0 °F 70% 30.18 in 6.2 mi NNW 20.7 mph - N/A   Scattered Clouds
5:30 PM 41.0 °F 33.1 °F 32.0 °F 70% 30.21 in 6.2 mi North 15.0 mph - N/A   Scattered Clouds
6:00 PM 39.2 °F 29.3 °F 32.0 °F 75% 30.18 in 6.2 mi North 20.7 mph - N/A   Scattered Clouds
6:30 PM 39.2 °F 30.2 °F 32.0 °F 75% 30.21 in 6.2 mi North 17.3 mph - N/A   Scattered Clouds
7:00 PM 41.0 °F 35.2 °F 32.0 °F 70% 30.21 in 6.2 mi North 9.2 mph - N/A   Mostly Cloudy
7:30 PM 39.2 °F 30.2 °F 32.0 °F 75% 30.21 in 6.2 mi North 17.3 mph - N/A   Scattered Clouds
8:00 PM 39.2 °F 29.6 °F 32.0 °F 75% 30.21 in 6.2 mi North 19.6 mph - N/A   Scattered Clouds
8:30 PM 37.4 °F 27.5 °F 30.2 °F 75% 30.24 in 6.2 mi North 18.4 mph - N/A   Scattered Clouds
9:00 PM 37.4 °F 28.5 °F 30.2 °F 75% 30.24 in 6.2 mi North 15.0 mph - N/A   Scattered Clouds
9:30 PM 37.4 °F 28.9 °F 30.2 °F 75% 30.21 in 6.2 mi North 13.8 mph - N/A   Scattered Clouds
10:00 PM 37.4 °F 28.5 °F 30.2 °F 75% 30.21 in 6.2 mi North 15.0 mph - N/A   Partly Cloudy
10:30 PM 37.4 °F 27.8 °F 30.2 °F 75% 30.21 in 6.2 mi North 17.3 mph - N/A   Partly Cloudy
11:00 PM 37.4 °F 29.3 °F 30.2 °F 75% 30.21 in 6.2 mi North 12.7 mph - N/A   Partly Cloudy
11:30 PM 37.4 °F 28.9 °F 30.2 °F 75% 30.21 in 6.2 mi North 13.8 mph - N/A   Scattered Clouds